User: anonymous   Login
Location: Unspecified
(43.4354°N, 0.0000°E)
Time: 23:53:34
(UTC+00:00)
Language:

A-11 Canister half - Orbit

View from above orbital plane
View from above orbital plane
View from above satellite
View from above satellite

Ground track
Ground track

The orbit data is extracted from the following two-line orbital elements,

1    53U 60009E   19177.46251727 -.00000160  00000-0 -73260-3 0  9992
2    53  47.2764 279.8711 0098823 107.3328 253.8298 12.17228489625081
Epoch (UTC): 26 June 2019 11:06:01
Eccentricity: 0.0098823
inclination: 47.2764°
perigee height: 1526 km
apogee height: 1683 km
right ascension of ascending node: 279.8711°
argument of perigee: 107.3328°
revolutions per day: 12.17228489
mean anomaly at epoch: 253.8298°
orbit number at epoch: 62508

The dashed part of the orbit path shows where the satellite is in the earth's shadow,  

DLR